period_start,C,m1,H,J0,J1,J2,J3,J4,J5,JA,JB,JC,JD,JJ,JK,JN,#
2017-09-30 00:03:16,0.00,0.07,0.00,21.21,26.10,29.23,14.04,45.03,1018.08,2037.99,3483.00,3097.99,3527.99,599.91,600.38,12.01,0000 0000 0000 0000 000000
2017-09-30 00:08:17,0.00,0.07,0.00,21.18,26.10,29.23,14.06,45.03,1018.08,2037.99,3483.00,3097.99,3527.97,599.95,600.43,12.06,0000 0000 0000 0000 000000
2017-09-30 00:13:19,0.00,0.07,0.00,21.20,26.10,29.25,14.06,45.17,1018.07,2037.99,3483.00,3097.99,3527.94,599.41,599.91,12.11,0000 0000 0000 0000 000000
2017-09-30 00:18:20,0.00,0.07,0.00,21.22,26.10,29.23,14.05,45.08,1018.08,2037.99,3482.94,3097.98,3527.73,599.70,600.17,12.16,0000 0000 0000 0000 000000
2017-09-30 00:23:21,0.01,0.07,0.00,21.22,26.10,29.23,14.07,45.02,1018.08,2037.99,3482.72,3097.98,3527.33,599.97,600.42,12.21,0000 0000 0000 0000 000000
2017-09-30 00:28:23,0.00,0.07,0.00,21.27,26.11,29.24,14.11,45.01,1018.08,2037.99,3482.32,3097.97,3527.04,599.94,600.25,12.26,0000 0000 0000 0000 000000
2017-09-30 00:33:24,0.00,0.07,0.00,21.25,26.12,29.24,14.11,45.01,1018.08,2037.99,3482.13,3097.97,3527.01,600.15,600.50,12.31,0000 0000 0000 0000 000000
2017-09-30 00:38:25,0.00,0.07,0.00,21.29,26.12,29.24,14.04,44.94,1018.08,2037.99,3482.00,3097.88,3527.00,600.20,600.52,12.36,0000 0000 0000 0000 000000
2017-09-30 00:43:27,0.00,0.07,0.00,21.32,26.12,29.25,14.09,45.03,1018.07,2037.99,3482.00,3097.84,3526.97,599.89,600.20,12.41,0000 0000 0000 0000 000000
2017-09-30 00:48:28,0.00,0.07,0.00,21.27,26.12,29.26,14.06,45.04,1018.05,2037.99,3481.99,3097.84,3526.97,600.16,600.64,12.46,0000 0000 0000 0000 000000
2017-09-30 00:53:30,0.01,0.07,0.00,21.30,26.12,29.25,13.93,45.09,1018.04,2037.99,3481.95,3097.66,3526.83,599.78,600.15,12.51,0000 0000 0000 0000 000000
2017-09-30 00:58:31,0.00,0.07,0.00,21.31,26.13,29.26,14.13,45.02,1018.06,2037.99,3481.84,3097.53,3526.59,599.91,600.17,12.56,0000 0000 0000 0000 000000
2017-09-30 01:03:32,0.01,0.07,0.00,21.29,26.14,29.27,14.00,45.03,1018.07,2037.99,3481.68,3097.48,3526.24,599.52,599.85,12.61,0000 0000 0000 0000 000000
2017-09-30 01:08:34,0.01,0.07,0.00,21.31,26.15,29.27,14.04,45.03,1018.04,2037.98,3481.19,3097.35,3526.07,599.67,599.97,12.66,0000 0000 0000 0000 000000
2017-09-30 01:13:35,0.01,0.08,0.00,21.28,26.15,29.27,13.97,45.01,1018.06,2037.99,3481.06,3097.27,3526.02,599.84,600.26,12.71,0000 0000 0000 0000 000000
2017-09-30 01:18:36,0.00,0.08,0.00,21.31,26.15,29.27,14.01,45.14,1018.08,2037.99,3481.01,3097.16,3526.00,599.90,600.19,12.76,0000 0000 0000 0000 000000
2017-09-30 01:23:37,0.00,0.08,0.00,21.32,26.15,29.27,14.04,45.07,1018.08,2037.97,3481.00,3097.09,3526.00,599.88,600.15,12.81,0000 0000 0000 0000 000000
2017-09-30 01:28:39,0.00,0.08,0.00,21.32,26.17,29.29,14.07,45.01,1018.08,2037.98,3481.00,3097.06,3526.00,599.82,600.12,12.86,0000 0000 0000 0000 000000
2017-09-30 01:33:40,0.00,0.08,0.00,21.34,26.17,29.29,14.13,44.99,1018.08,2037.97,3481.00,3097.04,3525.98,600.30,600.53,12.91,0000 0000 0000 0000 000000
2017-09-30 01:38:41,0.00,0.08,0.00,21.34,26.17,29.30,14.09,45.02,1018.08,2037.97,3481.00,3097.01,3525.83,600.35,600.61,12.96,0000 0000 0000 0000 000000
2017-09-30 01:43:42,0.00,0.08,0.00,21.37,26.17,29.30,14.07,45.03,1018.08,2037.89,3480.92,3097.00,3525.30,599.79,599.99,13.01,0000 0000 0000 0000 000000
2017-09-30 01:48:43,0.01,0.08,0.00,21.38,26.19,29.30,14.08,45.02,1018.08,2037.93,3480.62,3097.00,3525.06,600.17,600.28,13.06,0000 0000 0000 0000 000000
2017-09-30 01:53:45,-0.01,0.08,0.00,21.36,26.20,29.31,14.05,44.98,1018.09,2037.85,3480.26,3097.00,3525.01,600.10,600.32,13.11,0000 0000 0000 0000 000000
2017-09-30 01:58:46,-0.01,0.08,0.00,21.38,26.20,29.32,14.07,45.02,1018.09,2037.61,3480.04,3097.00,3525.00,599.89,600.06,13.16,0000 0000 0000 0000 000000
2017-09-30 02:03:47,-0.01,0.08,0.00,21.41,26.20,29.32,14.05,44.97,1018.10,2037.60,3480.00,3097.00,3525.00,600.00,600.05,13.21,0000 0000 0000 0000 000000
2017-09-30 02:08:48,-0.02,0.07,0.00,21.39,26.22,29.34,14.09,44.97,1018.11,2037.33,3480.00,3096.99,3524.98,600.01,600.24,13.26,0000 0000 0000 0000 000000
2017-09-30 02:13:49,-0.01,0.07,0.00,21.44,26.22,29.34,14.12,45.02,1018.10,2037.19,3480.00,3096.99,3524.97,600.23,600.28,13.31,0000 0000 0000 0000 000000
2017-09-30 02:18:50,0.00,0.07,0.00,21.43,26.22,29.34,14.12,45.02,1018.10,2037.14,3479.99,3096.99,3524.73,600.01,600.09,13.36,0000 0000 0000 0000 000000
2017-09-30 02:23:51,0.00,0.07,0.00,21.47,26.24,29.34,14.06,45.04,1018.09,2037.12,3479.97,3096.98,3524.39,599.77,599.78,13.41,0000 0000 0000 0000 000000
2017-09-30 02:28:52,0.00,0.07,0.00,21.47,26.25,29.36,14.08,45.14,1018.10,2037.04,3479.59,3096.91,3524.04,600.01,600.01,13.46,0000 0000 0000 0000 000000
2017-09-30 02:33:53,0.02,0.07,0.00,21.47,26.25,29.37,14.04,45.17,1018.13,2037.04,3479.07,3096.57,3524.00,599.85,599.91,13.51,0000 0000 0000 0000 000000
2017-09-30 02:38:55,0.00,0.08,0.00,21.53,26.25,29.38,14.07,45.01,1018.16,2037.10,3479.01,3096.47,3524.00,599.98,599.93,13.56,0000 0000 0000 0000 000000
2017-09-30 02:43:56,0.00,0.08,0.00,21.52,26.27,29.39,14.10,44.97,1018.16,2037.06,3479.00,3096.27,3523.99,599.97,599.91,13.61,0000 0000 0000 0000 000000
2017-09-30 02:48:58,-0.00,0.08,0.00,21.51,26.27,29.39,14.01,44.94,1018.17,2037.04,3479.00,3096.20,3523.98,599.77,599.83,13.66,0000 0000 0000 0000 000000
2017-09-30 02:53:59,0.00,0.08,0.00,21.59,26.28,29.39,14.10,44.95,1018.12,2037.00,3479.00,3096.07,3523.83,600.41,600.10,13.71,0000 0000 0000 0000 000000
2017-09-30 02:59:00,0.00,0.08,0.00,21.59,26.30,29.40,14.04,44.93,1018.14,2037.00,3478.98,3096.03,3523.32,600.29,599.98,13.76,0000 0000 0000 0000 000000
2017-09-30 03:04:02,0.00,0.08,0.00,21.59,26.30,29.41,14.01,44.93,1018.17,2037.00,3478.86,3096.03,3523.09,600.00,599.76,13.81,0000 0000 0000 0000 000000
2017-09-30 03:09:03,0.01,0.08,0.00,21.62,26.31,29.41,14.03,44.93,1018.27,2037.01,3478.08,3096.00,3523.01,599.92,599.62,13.86,0000 0000 0000 0000 000000
2017-09-30 03:14:04,0.00,0.08,0.00,21.63,26.32,29.43,14.02,44.95,1018.32,2037.02,3478.00,3096.00,3523.00,600.13,599.91,13.92,0000 0000 0000 0000 000000
2017-09-30 03:19:05,0.00,0.08,0.00,21.64,26.32,29.43,14.05,44.88,1018.27,2037.00,3478.00,3095.98,3522.98,599.90,599.68,13.97,0000 0000 0000 0000 000000
2017-09-30 03:24:07,0.00,0.08,0.00,21.66,26.34,29.45,13.99,44.73,1018.34,2037.00,3477.96,3095.97,3522.92,599.65,599.48,14.02,0000 0000 0000 0000 000000
2017-09-30 03:29:08,0.02,0.08,0.00,21.67,26.35,29.46,14.05,44.81,1018.42,2037.00,3477.63,3095.79,3522.45,600.03,599.73,14.07,0000 0000 0000 0000 000000
2017-09-30 03:34:10,0.02,0.08,0.00,21.71,26.36,29.47,14.09,44.78,1018.53,2037.00,3477.18,3095.39,3522.08,600.18,599.82,14.12,0000 0000 0000 0000 000000
2017-09-30 03:39:11,0.00,0.08,0.00,21.69,26.37,29.47,14.07,44.74,1018.53,2037.00,3477.07,3095.26,3522.00,599.89,599.67,14.17,0000 0000 0000 0000 000000
2017-09-30 03:44:13,0.00,0.08,0.00,21.71,26.38,29.49,14.00,44.77,1018.55,2037.00,3477.01,3095.07,3522.00,599.58,599.37,14.22,0000 0000 0000 0000 000000
2017-09-30 03:49:14,0.00,0.08,0.00,21.72,26.40,29.49,14.00,44.92,1018.56,2036.99,3477.00,3095.04,3521.98,599.86,599.59,14.27,0000 0000 0000 0000 000000
2017-09-30 03:54:15,0.00,0.08,0.00,21.72,26.40,29.50,14.09,44.83,1018.57,2036.99,3476.91,3095.00,3521.89,599.95,599.78,14.32,0000 0000 0000 0000 000000
2017-09-30 03:59:16,0.01,0.08,0.00,21.75,26.42,29.51,14.04,44.76,1018.57,2036.98,3476.70,3095.00,3521.35,599.97,599.70,14.37,0000 0000 0000 0000 000000
2017-09-30 04:04:17,-0.04,0.08,0.00,21.77,26.42,29.54,14.08,46.19,1018.57,2036.62,3476.55,3094.99,3521.01,600.37,599.96,14.42,0000 0000 0000 0000 000000
2017-09-30 04:09:18,-0.02,0.08,0.00,21.75,26.44,29.56,14.11,45.97,1018.57,2036.14,3476.10,3094.98,3520.98,600.18,599.84,14.47,0000 0000 0000 0000 000000
2017-09-30 04:14:19,0.01,0.08,0.00,21.76,26.45,29.56,14.09,45.87,1018.57,2036.11,3476.04,3094.98,3520.97,600.21,599.67,14.52,0000 0000 0000 0000 000000
2017-09-30 04:19:21,-0.01,0.08,0.00,21.78,26.46,29.59,14.08,45.70,1018.57,2036.05,3476.00,3094.95,3520.55,599.58,599.20,14.57,0000 0000 0000 0000 000000
2017-09-30 04:24:22,0.01,0.08,0.00,21.75,26.47,29.60,14.13,45.88,1018.58,2036.01,3475.98,3094.66,3520.03,599.95,599.72,14.62,0000 0000 0000 0000 000000
2017-09-30 04:29:23,0.00,0.08,0.00,21.78,26.47,29.60,14.02,45.17,1018.58,2036.00,3475.84,3094.34,3520.00,599.73,599.39,14.67,0000 0000 0000 0000 000000
2017-09-30 04:34:24,0.02,0.08,0.00,21.79,26.50,29.61,14.01,45.31,1018.64,2036.00,3475.29,3094.15,3520.00,600.73,600.61,14.72,0000 0000 0000 0000 000000
2017-09-30 04:39:25,0.00,0.08,0.00,21.77,26.50,29.62,14.08,45.46,1018.73,2036.00,3475.00,3094.04,3519.95,600.31,600.06,14.77,0000 0000 0000 0000 000000
2017-09-30 04:44:27,0.00,0.08,0.00,21.81,26.51,29.64,14.08,45.23,1018.79,2036.00,3475.00,3094.02,3519.76,600.43,600.21,14.82,0000 0000 0000 0000 000000
2017-09-30 04:49:28,0.01,0.08,0.00,21.80,26.52,29.65,14.03,45.36,1018.93,2036.00,3474.82,3094.00,3519.19,600.28,599.95,14.87,0000 0000 0000 0000 000000
2017-09-30 04:54:29,0.01,0.08,0.00,21.78,26.52,29.65,14.08,45.26,1018.98,2035.99,3474.18,3093.99,3519.01,600.04,599.74,14.92,0000 0000 0000 0000 000000
2017-09-30 04:59:30,0.00,0.08,0.00,21.83,26.54,29.66,14.04,45.19,1018.97,2035.99,3474.01,3093.99,3519.00,600.08,599.77,14.97,0000 0000 0000 0000 000000
2017-09-30 05:04:31,0.00,0.08,0.00,21.80,26.55,29.67,14.03,45.02,1019.01,2035.99,3473.99,3093.98,3518.99,599.29,599.12,15.02,0000 0000 0000 0000 000000
2017-09-30 05:09:33,0.00,0.08,0.00,21.80,26.55,29.68,14.12,45.05,1019.04,2035.99,3473.98,3093.98,3518.90,600.14,600.07,15.07,0000 0000 0000 0000 000000
2017-09-30 05:14:34,0.01,0.08,0.00,21.83,26.57,29.68,14.01,45.16,1019.05,2035.99,3473.79,3093.95,3518.28,600.47,600.41,15.12,0000 0000 0000 0000 000000
2017-09-30 05:19:35,0.02,0.08,0.00,21.82,26.57,29.69,14.12,45.80,1019.06,2035.93,3473.14,3093.48,3518.00,599.90,599.73,15.17,0000 0000 0000 0000 000000
2017-09-30 05:24:36,0.00,0.08,0.00,21.80,26.57,29.71,14.10,45.56,1019.06,2035.94,3473.00,3093.21,3517.97,599.53,599.40,15.22,0000 0000 0000 0000 000000
2017-09-30 05:29:37,0.00,0.08,0.00,21.86,26.58,29.70,14.04,45.21,1019.06,2035.87,3472.92,3093.05,3517.60,599.15,598.84,15.27,0000 0000 0000 0000 000000
2017-09-30 05:34:39,-0.01,0.08,0.00,21.85,26.60,29.71,14.03,44.97,1019.07,2035.72,3472.95,3093.09,3517.13,599.71,599.57,15.32,0000 0000 0000 0000 000000
2017-09-30 05:39:40,-0.01,0.08,0.00,21.83,26.60,29.72,14.20,45.72,1019.08,2035.55,3472.51,3093.04,3517.02,600.71,600.66,15.37,0000 0000 0000 0000 000000
2017-09-30 05:44:41,-0.01,0.08,0.00,21.84,26.60,29.72,14.07,45.48,1019.08,2035.31,3472.03,3093.00,3517.00,599.63,599.46,15.42,0000 0000 0000 0000 000000
2017-09-30 05:49:42,-0.01,0.08,0.00,21.82,26.61,29.73,14.06,45.30,1019.09,2035.22,3472.00,3093.00,3516.99,599.44,599.43,15.47,0000 0000 0000 0000 000000
2017-09-30 05:54:44,-0.00,0.08,0.00,21.81,26.62,29.74,14.08,44.79,1019.12,2035.21,3471.99,3093.00,3516.87,600.15,600.01,15.52,0000 0000 0000 0000 000000
2017-09-30 05:59:45,0.01,0.08,0.00,21.85,26.62,29.75,14.03,44.82,1019.20,2035.25,3471.90,3093.00,3516.42,599.89,599.68,15.57,0000 0000 0000 0000 000000
2017-09-30 06:04:46,0.01,0.08,0.00,21.83,26.63,29.75,14.06,44.82,1019.20,2035.17,3471.47,3093.00,3516.07,599.91,599.83,15.62,0000 0000 0000 0000 000000
2017-09-30 06:09:48,0.00,0.08,0.00,21.83,26.65,29.76,14.10,45.11,1019.23,2035.16,3471.02,3092.99,3516.00,600.61,600.49,15.67,0000 0000 0000 0000 000000
2017-09-30 06:14:49,-0.01,0.08,0.00,21.87,26.65,29.75,14.03,45.49,1019.31,2035.06,3471.00,3092.96,3516.00,599.30,599.25,15.72,0000 0000 0000 0000 000000
2017-09-30 06:19:50,0.01,0.08,0.00,21.84,26.65,29.78,14.14,45.50,1019.42,2035.02,3470.83,3092.85,3515.97,600.37,600.46,15.77,0000 0000 0000 0000 000000
2017-09-30 06:24:51,0.02,0.08,0.00,21.82,26.65,29.78,14.13,45.60,1019.49,2035.03,3470.34,3092.50,3515.64,600.50,600.61,15.82,0000 0000 0000 0000 000000
2017-09-30 06:29:52,0.01,0.08,0.00,21.83,26.67,29.79,13.99,44.92,1019.49,2035.06,3470.08,3092.44,3515.22,599.51,599.65,15.87,0000 0000 0000 0000 000000
2017-09-30 06:34:54,0.00,0.09,0.00,21.83,26.67,29.79,14.04,44.81,1019.49,2035.06,3470.00,3092.23,3515.01,599.91,599.88,15.92,0000 0000 0000 0000 000000
2017-09-30 06:39:55,0.01,0.09,0.00,21.85,26.67,29.79,14.09,45.09,1019.53,2035.07,3469.99,3092.11,3515.00,600.93,601.17,15.97,0000 0000 0000 0000 000000
2017-09-30 06:44:56,0.00,0.09,0.00,21.86,26.67,29.80,14.06,45.58,1019.55,2035.01,3469.63,3092.01,3514.83,599.58,599.63,16.02,0000 0000 0000 0000 000000
2017-09-30 06:49:58,0.01,0.09,0.00,21.84,26.69,29.80,14.11,45.58,1019.55,2035.00,3469.62,3092.00,3514.38,600.06,600.10,16.07,0000 0000 0000 0000 000000
2017-09-30 06:54:59,0.01,0.09,0.00,21.85,26.70,29.81,14.16,45.57,1019.55,2035.00,3469.20,3092.01,3514.10,599.90,600.05,16.12,0000 0000 0000 0000 000000
2017-09-30 07:00:00,0.00,0.09,0.00,21.87,26.70,29.82,14.21,45.55,1019.56,2035.02,3469.02,3092.01,3514.07,599.68,599.89,16.17,0000 0000 0000 0000 000000
2017-09-30 07:05:01,0.00,0.09,0.00,21.86,26.70,29.82,14.09,44.81,1019.60,2035.02,3468.99,3092.01,3514.02,599.87,599.97,16.22,0000 0000 0000 0000 000000
2017-09-30 07:10:02,0.01,0.09,0.00,21.83,26.70,29.83,14.06,45.35,1019.65,2035.04,3468.47,3091.99,3514.00,600.05,600.28,16.27,0000 0000 0000 0000 000000
2017-09-30 07:15:03,0.00,0.09,0.00,21.84,26.70,29.83,14.15,45.17,1019.66,2035.03,3468.11,3091.98,3513.98,599.84,599.98,16.32,0000 0000 0000 0000 000000
2017-09-30 07:20:04,0.01,0.09,0.00,21.85,26.71,29.82,14.10,44.80,1019.60,2035.05,3468.00,3091.98,3513.82,599.80,600.01,16.37,0000 0000 0000 0000 000000
2017-09-30 07:25:06,0.00,0.09,0.00,21.83,26.72,29.84,14.13,45.01,1019.64,2035.03,3468.00,3091.98,3513.22,600.84,600.97,16.43,0000 0000 0000 0000 000000
2017-09-30 07:30:07,0.00,0.09,0.00,21.88,26.72,29.84,14.02,45.59,1019.80,2035.00,3467.95,3091.87,3513.00,599.33,599.46,16.48,0000 0000 0000 0000 000000
2017-09-30 07:35:08,0.00,0.09,0.00,21.88,26.72,29.84,14.09,45.15,1019.92,2035.00,3467.80,3091.80,3512.99,600.26,600.53,16.53,0000 0000 0000 0000 000000
2017-09-30 07:40:09,0.01,0.09,0.00,21.85,26.72,29.85,13.97,45.13,1019.94,2035.00,3467.39,3091.75,3512.81,599.17,599.57,16.58,0000 0000 0000 0000 000000
2017-09-30 07:45:10,0.02,0.09,0.00,21.85,26.72,29.85,13.97,45.37,1019.98,2035.00,3467.10,3091.54,3512.13,599.83,600.25,16.63,0000 0000 0000 0000 000000
2017-09-30 07:50:12,0.00,0.09,0.00,21.83,26.72,29.86,14.09,45.28,1020.03,2034.99,3467.00,3091.40,3512.00,600.66,601.06,16.68,0000 0000 0000 0000 000000
2017-09-30 07:55:13,0.00,0.09,0.00,21.82,26.73,29.85,14.17,45.77,1020.03,2034.97,3466.99,3091.28,3512.00,600.49,600.69,16.73,0000 0000 0000 0000 000000
2017-09-30 08:00:14,0.00,0.09,0.00,21.85,26.74,29.86,14.05,45.15,1020.03,2034.97,3466.84,3091.22,3512.00,600.37,600.84,16.78,0000 0000 0000 0000 000000
2017-09-30 08:05:15,0.01,0.09,0.00,21.85,26.74,29.86,14.08,45.35,1020.03,2034.98,3466.31,3091.14,3511.76,600.69,601.10,16.83,0000 0000 0000 0000 000000
2017-09-30 08:10:17,0.01,0.09,0.00,21.82,26.75,29.86,13.92,45.04,1020.03,2034.95,3466.01,3091.03,3511.08,599.02,599.42,16.88,0000 0000 0000 0000 000000
2017-09-30 08:15:18,-0.00,0.09,0.00,21.84,26.75,29.86,14.20,45.79,1020.03,2034.92,3466.00,3091.05,3511.01,600.48,600.93,16.93,0000 0000 0000 0000 000000
2017-09-30 08:20:19,0.00,0.09,0.00,21.89,26.75,29.86,14.20,45.66,1020.03,2034.92,3465.95,3091.03,3511.00,601.09,601.15,16.98,0000 0000 0000 0000 000000
2017-09-30 08:25:21,0.01,0.09,0.00,21.87,26.75,29.88,14.06,45.46,1020.04,2034.94,3465.39,3091.01,3510.98,600.17,600.61,17.03,0000 0000 0000 0000 000000
2017-09-30 08:30:21,-0.00,0.09,0.00,21.85,26.75,29.87,13.99,45.38,1020.05,2034.89,3465.05,3091.00,3510.74,599.54,599.93,17.08,0000 0000 0000 0000 000000
2017-09-30 08:35:22,0.01,0.09,0.00,21.84,26.75,29.87,14.08,45.59,1020.04,2034.85,3465.00,3091.00,3510.07,599.87,600.24,17.13,0000 0000 0000 0000 000000
2017-09-30 08:40:24,-0.00,0.09,0.00,21.81,26.75,29.88,14.08,45.48,1020.06,2034.86,3464.94,3091.00,3510.01,599.88,600.10,17.18,0000 0000 0000 0000 000000
2017-09-30 08:45:25,0.01,0.09,0.00,21.78,26.75,29.86,14.10,45.38,1020.09,2034.92,3464.44,3091.00,3510.00,599.54,600.09,17.23,0000 0000 0000 0000 000000
2017-09-30 08:50:26,0.01,0.09,0.00,21.83,26.75,29.87,14.16,45.46,1020.10,2034.93,3464.05,3091.00,3509.99,599.96,600.43,17.28,0000 0000 0000 0000 000000
2017-09-30 08:55:27,0.01,0.09,0.00,21.80,26.75,29.87,14.10,45.52,1020.09,2034.94,3464.00,3091.00,3509.80,599.37,599.93,17.33,0000 0000 0000 0000 000000
2017-09-30 09:00:29,-0.01,0.09,0.00,21.80,26.75,29.87,14.02,45.34,1020.23,2034.78,3463.98,3091.00,3509.21,599.60,600.17,17.38,0000 0000 0000 0000 000000
2017-09-30 09:05:30,-0.01,0.09,0.00,21.87,26.75,29.88,14.09,45.31,1020.23,2034.58,3463.72,3091.00,3509.01,599.43,599.99,17.43,0000 0000 0000 0000 000000
2017-09-30 09:10:32,0.03,0.09,0.00,21.83,26.75,29.88,14.03,45.20,1020.35,2034.55,3463.17,3090.98,3509.00,599.61,600.16,17.48,0000 0000 0000 0000 000000
2017-09-30 09:15:33,0.01,0.10,0.00,21.82,26.75,29.88,14.03,44.98,1020.41,2034.83,3463.00,3090.97,3508.98,599.31,599.93,17.53,0000 0000 0000 0000 000000
2017-09-30 09:20:34,0.01,0.10,0.00,21.88,26.75,29.87,14.12,45.38,1020.43,2034.84,3462.96,3090.97,3508.73,600.18,600.69,17.58,0000 0000 0000 0000 000000
2017-09-30 09:25:35,0.01,0.10,0.00,21.83,26.75,29.89,14.08,45.24,1020.47,2034.78,3462.50,3090.94,3508.11,599.87,600.46,17.63,0000 0000 0000 0000 000000
2017-09-30 09:30:37,0.01,0.10,0.00,21.82,26.75,29.87,14.10,45.23,1020.51,2034.78,3462.06,3090.92,3508.00,599.53,600.18,17.68,0000 0000 0000 0000 000000
2017-09-30 09:35:38,0.00,0.10,0.00,21.84,26.75,29.87,14.13,45.43,1020.52,2034.78,3462.00,3090.89,3508.00,600.06,600.53,17.73,0000 0000 0000 0000 000000
2017-09-30 09:40:39,-0.02,0.10,0.00,21.81,26.75,29.87,14.10,45.50,1020.52,2034.54,3461.86,3090.61,3507.83,600.27,601.11,17.78,0000 0000 0000 0000 000000
2017-09-30 09:45:40,0.01,0.10,0.00,21.78,26.75,29.87,14.06,45.52,1020.52,2034.44,3461.31,3090.49,3507.24,599.51,600.33,17.83,0000 0000 0000 0000 000000
2017-09-30 09:50:41,0.04,0.10,0.00,21.83,26.75,29.86,14.11,45.26,1020.52,2034.64,3461.01,3090.36,3507.03,600.40,601.20,17.88,0000 0000 0000 0000 000000
2017-09-30 09:55:43,0.01,0.10,0.00,21.79,26.74,29.85,14.08,45.52,1020.52,2034.78,3460.97,3090.20,3507.00,599.56,600.30,17.93,0000 0000 0000 0000 000000
2017-09-30 10:00:44,0.00,0.10,0.00,21.78,26.74,29.86,14.19,45.67,1020.51,2034.72,3460.80,3090.16,3506.98,600.37,601.02,17.98,0000 0000 0000 0000 000000
2017-09-30 10:05:45,-0.03,0.10,0.00,21.79,26.73,29.85,14.10,45.89,1020.52,2034.37,3460.43,3090.20,3506.66,600.43,601.49,18.03,0000 0000 0000 0000 000000
2017-09-30 10:10:46,0.01,0.10,0.00,21.79,26.73,29.86,14.15,45.77,1020.52,2034.26,3460.01,3090.04,3506.06,600.51,601.27,18.08,0000 0000 0000 0000 000000
2017-09-30 10:15:47,0.00,0.10,0.00,21.76,26.72,29.85,14.06,45.31,1020.52,2034.27,3459.99,3090.03,3506.00,599.50,600.19,18.13,0000 0000 0000 0000 000000
2017-09-30 10:20:48,-0.00,0.10,0.00,21.76,26.72,29.85,14.04,45.58,1020.52,2034.22,3459.77,3090.03,3506.00,599.91,600.69,18.18,0000 0000 0000 0000 000000
2017-09-30 10:25:50,0.01,0.10,0.00,21.74,26.72,29.84,14.16,45.69,1020.52,2034.15,3459.26,3090.02,3505.95,600.86,601.67,18.23,0000 0000 0000 0000 000000
2017-09-30 10:30:51,0.01,0.10,0.00,21.74,26.72,29.84,14.15,45.65,1020.52,2034.27,3459.02,3090.01,3505.66,600.34,601.22,18.28,0000 0000 0000 0000 000000
2017-09-30 10:35:52,0.03,0.10,0.00,21.76,26.72,29.85,14.09,45.38,1020.52,2034.49,3459.00,3090.01,3505.19,599.31,599.94,18.33,0000 0000 0000 0000 000000
2017-09-30 10:40:53,-0.00,0.10,0.00,21.73,26.72,29.84,14.03,45.31,1020.52,2034.49,3458.96,3090.00,3505.00,599.65,600.53,18.38,0000 0000 0000 0000 000000
2017-09-30 10:45:54,0.01,0.10,0.00,21.72,26.72,29.85,14.18,45.71,1020.52,2034.57,3458.73,3090.04,3505.00,599.94,601.06,18.43,0000 0000 0000 0000 000000
2017-09-30 10:50:56,0.02,0.10,0.00,21.74,26.72,29.84,14.16,45.36,1020.52,2034.65,3458.22,3090.02,3504.99,600.76,601.64,18.48,0000 0000 0000 0000 000000
2017-09-30 10:55:57,0.01,0.10,0.00,21.73,26.72,29.83,14.13,45.53,1020.52,2034.86,3458.05,3090.06,3504.99,600.18,601.11,18.53,0000 0000 0000 0000 000000
2017-09-30 11:00:58,-0.01,0.10,0.00,21.72,26.72,29.83,14.05,45.39,1020.52,2034.72,3457.99,3090.03,3504.76,599.46,600.40,18.58,0000 0000 0000 0000 000000
2017-09-30 11:06:00,0.02,0.10,0.00,21.73,26.71,29.84,14.06,45.23,1020.52,2034.80,3457.85,3090.01,3504.31,599.38,600.38,18.63,0000 0000 0000 0000 000000
2017-09-30 11:11:01,0.01,0.11,0.00,21.71,26.70,29.84,14.16,45.70,1020.52,2034.82,3457.27,3090.00,3504.03,600.60,601.55,18.68,0000 0000 0000 0000 000000
2017-09-30 11:16:02,-0.01,0.10,0.00,21.68,26.70,29.85,14.10,45.46,1020.52,2034.54,3457.16,3090.01,3504.00,599.39,600.18,18.73,0000 0000 0000 0000 000000
2017-09-30 11:21:03,0.01,0.11,0.00,21.71,26.70,29.85,14.04,45.17,1020.52,2034.82,3457.01,3090.01,3504.00,600.15,601.05,18.78,0000 0000 0000 0000 000000
2017-09-30 11:26:04,0.00,0.11,0.00,21.69,26.70,29.83,14.13,45.75,1020.53,2034.73,3456.97,3090.00,3503.87,599.78,600.76,18.83,0000 0000 0000 0000 000000
2017-09-30 11:31:06,-0.00,0.10,0.00,21.68,26.70,29.84,14.22,45.66,1020.54,2034.63,3456.90,3090.00,3503.70,599.84,601.02,18.88,0000 0000 0000 0000 000000
2017-09-30 11:36:07,0.02,0.11,0.00,21.75,26.70,29.83,14.15,45.50,1020.54,2034.70,3456.32,3090.00,3503.19,600.56,601.30,18.93,0000 0000 0000 0000 000000
2017-09-30 11:41:08,0.02,0.11,0.00,21.70,26.70,29.82,14.07,45.39,1020.54,2034.89,3456.00,3090.00,3503.02,599.83,601.35,18.98,0000 0000 0000 0000 000000
2017-09-30 11:46:09,0.00,0.11,0.00,21.68,26.70,29.82,14.17,45.66,1020.54,2034.95,3455.99,3090.00,3503.00,600.03,600.99,19.03,0000 0000 0000 0000 000000
2017-09-30 11:51:10,-0.00,0.11,0.00,21.70,26.69,29.80,14.23,45.88,1020.54,2034.95,3455.95,3090.00,3502.98,600.56,601.62,19.09,0000 0000 0000 0000 000000
2017-09-30 11:56:12,0.01,0.11,0.00,21.66,26.68,29.82,14.20,45.98,1020.54,2034.88,3455.39,3090.00,3502.57,601.18,602.17,19.14,0000 0000 0000 0000 000000
2017-09-30 12:01:13,0.01,0.11,0.00,21.68,26.67,29.82,14.15,45.82,1020.54,2034.84,3455.06,3090.00,3502.12,599.40,600.43,19.19,0000 0000 0000 0000 000000
2017-09-30 12:06:14,0.00,0.11,0.00,21.71,26.67,29.80,14.08,45.64,1020.54,2034.80,3455.00,3089.99,3502.01,599.51,600.17,19.24,0000 0000 0000 0000 000000
2017-09-30 12:11:15,0.01,0.11,0.00,21.67,26.67,29.78,14.05,45.66,1020.56,2034.88,3454.99,3089.99,3502.00,599.84,600.90,19.29,0000 0000 0000 0000 000000
2017-09-30 12:16:17,0.01,0.11,0.00,21.67,26.67,29.82,14.15,45.60,1020.57,2034.86,3454.55,3089.99,3501.98,600.50,601.44,19.34,0000 0000 0000 0000 000000
2017-09-30 12:21:18,0.01,0.11,0.00,21.71,26.67,29.79,13.99,45.37,1020.66,2034.87,3454.10,3089.99,3501.88,599.59,600.63,19.39,0000 0000 0000 0000 000000
2017-09-30 12:26:19,0.01,0.11,0.00,21.67,26.67,29.78,14.20,45.68,1020.73,2034.92,3454.01,3089.98,3501.41,601.07,602.13,19.44,0000 0000 0000 0000 000000
2017-09-30 12:31:21,0.00,0.11,0.00,21.66,26.66,29.79,14.03,45.29,1020.78,2034.95,3453.99,3089.98,3501.08,599.81,600.94,19.49,0000 0000 0000 0000 000000
2017-09-30 12:36:22,0.01,0.11,0.00,21.67,26.65,29.78,13.99,45.17,1020.85,2034.89,3453.55,3089.98,3501.00,599.57,600.94,19.54,0000 0000 0000 0000 000000
2017-09-30 12:41:23,0.00,0.11,0.00,21.66,26.65,29.80,14.14,45.73,1020.80,2034.94,3453.04,3089.97,3501.00,600.33,601.49,19.59,0000 0000 0000 0000 000000
2017-09-30 12:46:24,-0.00,0.11,0.00,21.68,26.65,29.78,14.06,45.73,1020.78,2034.94,3453.05,3089.98,3500.97,600.20,601.44,19.64,0000 0000 0000 0000 000000
2017-09-30 12:51:26,-0.00,0.11,0.00,21.70,26.65,29.77,14.07,45.63,1020.76,2034.91,3452.99,3089.96,3500.74,598.42,599.63,19.69,0000 0000 0000 0000 000000
2017-09-30 12:56:27,0.01,0.11,0.00,21.67,26.65,29.78,14.05,45.85,1020.84,2034.96,3452.88,3089.97,3500.35,599.56,600.81,19.74,0000 0000 0000 0000 000000